Location: DARK SKY Beskydy - Park tmavé oblohy, www.darkskybeskydy.cz
(49.4926°N, 18.5016°E)
Time: 12:30:22
(UTC+02:00)

Vanguard 1 - Pass Details

Date: 23 February 2024
Orbit: 653 x 3825 km, 34.2° (Epoch: 12 April)

Event Time Altitude Azimuth Distance (km) Brightness Sun altitude
Rises 00:08:49 0° 269° (W) 7,074 14.4 -50.6°
Reaches altitude 10° 00:13:24 10° 263° (W) 6,357 14.0 -50.5°
Enters shadow 00:17:39 20° 257° (WSW) 5,766 13.7 -50.4°
Maximum altitude 00:33:22 46° 200° (SSW) 4,616 - -50.0°
Drops below altitude 10° 00:53:01 10° 136° (SE) 6,242 - -49.1°
Exits shadow 00:53:53 - 135° (SE) 6,371 14.0 -49.0°
Sets 00:57:31 0° 131° (SE) 6,940 14.3 -48.8°
